User: anonymous   Login
Location: Heidgraben
(53.7081°N, 9.6576°E)
Time: 06:13:26
(UTC+00:00)
Language:

MTI - Orbit

View from above orbital plane
View from above orbital plane
View from above satellite
View from above satellite

Ground track
Ground track

The orbit data is extracted from the following two-line orbital elements,

1 26102U 00014A   20273.21391574  .00007884  00000-0  11232-3 0  9991
2 26102  97.4872 160.5267 0006571 194.1815 165.9256 15.56600472140651
Epoch (UTC): 29 September 2020 05:08:02
Eccentricity: 0.0006571
inclination: 97.4872°
perigee height: 393 km
apogee height: 402 km
right ascension of ascending node: 160.5267°
argument of perigee: 194.1815°
revolutions per day: 15.56600472
mean anomaly at epoch: 165.9256°
orbit number at epoch: 14065

The dashed part of the orbit path shows where the satellite is in the earth's shadow,  

DLR